Weather History for Akron, CO

Change the Weather History Date:

Wednesday, March 6, 2013

  Actual Average Record
Temperature  
Mean Temperature 35 °F 37 °F  
Max Temperature 54 °F 50 °F 77 °F (1972)
Min Temperature 15 °F 24 °F -20 °F (1943)
Degree Days  
Heating Degree Days 30    
Month to date heating degree days 176  
Cooling Degree Days 0    
Month to date cooling degree days 0  
Moisture  
Dew Point 21 °F    
Average Humidity 60    
Maximum Humidity 88    
Minimum Humidity 32    
Precipitation  
Precipitation 0.00 in 0.03 in 1.27 in (1990)
Month to date precipitation T 0.13  
Year to date precipitation 0.12 0.87  
Sea Level Pressure  
Sea Level Pressure 30.02 in    
Wind  
Wind Speed 12 mph (SSE)    
Max Wind Speed 22 mph    
Max Gust Speed 25 mph    
Visibility 10 miles    
Events      
T = Trace of Precipitation, MM = Missing Value Source: NWS Daily Summary

Daily Weather History Graph

Daily Weather History Graph

Search for Another Location

Airport:

Trip Planner

Search our weather history database for the weather conditions in past years. The results will help you decide how hot, cold, wet, or windy it might be!

Date:

Astronomy

Mar. 06, 2013 Rise Set
Actual Time 6:18 AM MST 5:50 PM MST
Civil Twilight 5:51 AM MST 6:17 PM MST
Nautical Twilight 5:19 AM MST 6:49 PM MST
Astronomical Twilight 4:48 AM MST 7:20 PM MST
Moon 2:29 AM MST (3/6) 12:34 PM MST (3/6)
Length of Visible Light 12h 26m
Length of Day
11h 32m
Waning Crescent, 29% of the Moon is Illuminated
Mar 6
Waning Crescent
Mar 11
New
Mar 19
First Quarter
Mar 27
Full
Apr 2
Last Quarter

Hourly Weather History & Observations

Time (MST) Temp. Windchill Dew Point Humidity Pressure Visibility Wind Dir Wind Speed Gust Speed Precip Events Conditions
12:53 AM 25.0 °F 12.2 °F 15.1 °F 66% 30.24 in 10.0 mi SSE 16.1 mph - N/A   Clear
1:53 AM 24.1 °F 12.0 °F 15.1 °F 69% 30.21 in 10.0 mi SSE 13.8 mph - N/A   Clear
2:53 AM 23.0 °F 10.6 °F 15.1 °F 72% 30.19 in 10.0 mi SSE 13.8 mph - N/A   Clear
3:53 AM 21.9 °F 9.2 °F 14.0 °F 72% 30.17 in 10.0 mi SSE 13.8 mph - N/A   Clear
5:53 AM 15.1 °F 6.4 °F 10.9 °F 84% 30.19 in 10.0 mi East 5.8 mph - N/A   Clear
6:53 AM 16.0 °F 5.3 °F 12.9 °F 88% 30.19 in 10.0 mi ESE 8.1 mph - N/A   Clear
7:53 AM 21.9 °F 12.5 °F 16.0 °F 78% 30.17 in 10.0 mi SSE 8.1 mph - N/A   Clear
8:53 AM 30.0 °F 25.2 °F 19.9 °F 66% 30.14 in 10.0 mi SSW 4.6 mph - N/A   Clear
9:53 AM 37.9 °F 34.4 °F 21.9 °F 53% 30.09 in 10.0 mi SSE 4.6 mph - N/A   Clear
10:53 AM 44.1 °F - 23.0 °F 43% 30.05 in 10.0 mi Calm Calm - N/A   Clear
11:53 AM 45.0 °F 40.1 °F 24.1 °F 44% 30.04 in 10.0 mi ESE 9.2 mph - N/A   Clear
12:53 PM 48.0 °F - 25.0 °F 41% 29.98 in 10.0 mi SE 13.8 mph - N/A   Clear
1:53 PM 50.0 °F - 25.0 °F 38% 29.95 in 10.0 mi SSE 11.5 mph - N/A   Clear
2:53 PM 53.1 °F - 25.0 °F 34% 29.92 in 10.0 mi SE 17.3 mph - N/A   Clear
3:53 PM 53.1 °F - 25.0 °F 34% 29.91 in 10.0 mi SE 16.1 mph - N/A   Clear
4:53 PM 48.9 °F - 25.0 °F 39% 29.90 in 10.0 mi SE 15.0 mph - N/A   Clear
5:53 PM 45.0 °F 38.9 °F 26.1 °F 48% 29.93 in 10.0 mi SE 12.7 mph - N/A   Clear
6:53 PM 39.9 °F 32.5 °F 25.0 °F 55% 29.95 in 10.0 mi SE 12.7 mph - N/A   Clear
7:53 PM 41.0 °F 33.9 °F 25.0 °F 53% 29.91 in 10.0 mi SSE 12.7 mph - N/A   Clear
8:53 PM 37.0 °F 29.8 °F 25.0 °F 62% 29.90 in 10.0 mi SE 10.4 mph - N/A   Clear
9:53 PM 34.0 °F 28.0 °F 24.1 °F 67% 29.87 in 10.0 mi ESE 6.9 mph - N/A   Clear
10:53 PM 37.0 °F 29.8 °F 23.0 °F 57% 29.83 in 10.0 mi South 10.4 mph - N/A   Clear
11:53 PM 36.0 °F 27.5 °F 23.0 °F 59% 29.82 in 10.0 mi SW 12.7 mph - N/A   Clear